| time (UTC) | temp F | wind direction | speed knots | gust knots | rain 1hr in | rain 24hr in | rain mn in | humidity % | barometer mb |
| 20260510162032 | 52 | 40 | 7.8 | 14.8 | 0.00 | 0.00 | 0.00 | 65 | 1014.6 |
| 20260510161026 | 52 | 31 | 9.6 | 15.6 | 0.00 | 0.00 | 0.00 | 64 | 1014.6 |
| 20260510160022 | 52 | 28 | 9.6 | 16.5 | 0.00 | 0.00 | 0.00 | 65 | 1014.8 |
| 20260510155057 | 52 | 37 | 7.8 | 13.9 | 0.00 | 0.00 | 0.00 | 66 | 1014.8 |
| 20260510154032 | 52 | 47 | 9.6 | 14.8 | 0.00 | 0.00 | 0.00 | 66 | 1014.9 |
| 20260510153027 | 52 | 36 | 7.8 | 15.6 | 0.00 | 0.00 | 0.00 | 67 | 1014.9 |
| 20260510152023 | 52 | 42 | 7.8 | 13.9 | 0.00 | 0.00 | 0.00 | 67 | 1014.9 |
| 20260510151017 | 52 | 27 | 8.7 | 13.9 | 0.00 | 0.00 | 0.00 | 67 | 1015.1 |
| 20260510150033 | 52 | 24 | 8.7 | 15.6 | 0.00 | 0.00 | 0.00 | 68 | 1015.2 |
| 20260510145028 | 52 | 28 | 7.0 | 12.2 | 0.00 | 0.00 | 0.00 | 69 | 1015.3 |
| 20260510144023 | 52 | 4 | 7.8 | 14.8 | 0.00 | 0.00 | 0.00 | 70 | 1015.4 |
| 20260510143059 | 52 | 35 | 8.7 | 14.8 | 0.00 | 0.00 | 0.00 | 71 | 1015.6 |
| 20260510142114 | 52 | 47 | 8.7 | 12.2 | 0.00 | 0.00 | 0.00 | 71 | 1015.7 |
| 20260510141029 | 52 | 52 | 7.8 | 15.6 | 0.00 | 0.00 | 0.00 | 71 | 1015.9 |
| 20260510135018 | 52 | 53 | 4.3 | 8.7 | 0.00 | 0.00 | 0.00 | 73 | 1015.9 |
| 20260510134033 | 52 | 58 | 4.3 | 11.3 | 0.00 | 0.00 | 0.00 | 71 | 1015.9 |
| 20260510133029 | 52 | 55 | 7.0 | 11.3 | 0.00 | 0.00 | 0.00 | 72 | 1015.9 |
| 20260510132024 | 52 | 35 | 7.0 | 12.2 | 0.00 | 0.00 | 0.00 | 72 | 1015.9 |
| 20260510131019 | 52 | 41 | 6.1 | 13.9 | 0.00 | 0.00 | 0.00 | 73 | 1016.1 |
| 20260510130034 | 52 | 48 | 7.8 | 12.2 | 0.00 | 0.00 | 0.00 | 72 | 1016.1 |
| 20260510125109 | 53 | 49 | 7.8 | 14.8 | 0.00 | 0.00 | 0.00 | 68 | 1016.1 |
| 20260510124023 | 54 | 65 | 7.0 | 14.8 | 0.00 | 0.00 | 0.00 | 67 | 1016.2 |
| 20260510123018 | 54 | 57 | 7.0 | 16.5 | 0.00 | 0.00 | 0.00 | 67 | 1016.3 |
| 20260510122114 | 54 | 61 | 8.7 | 19.1 | 0.00 | 0.00 | 0.00 | 65 | 1016.2 |
| 20260510121029 | 54 | 55 | 7.8 | 15.6 | 0.00 | 0.00 | 0.00 | 64 | 1016.3 |
| 20260510120103 | 54 | 51 | 8.7 | 13.9 | 0.00 | 0.00 | 0.00 | 64 | 1016.4 |
| 20260510115018 | 55 | 44 | 8.7 | 18.2 | 0.00 | 0.00 | 0.00 | 64 | 1016.3 |
| 20260510114034 | 55 | 47 | 7.0 | 13.0 | 0.00 | 0.00 | 0.00 | 65 | 1016.3 |
| 20260510113029 | 56 | 43 | 9.6 | 13.9 | 0.00 | 0.00 | 0.00 | 63 | 1016.5 |
| 20260510112104 | 55 | 57 | 7.8 | 14.8 | 0.00 | 0.00 | 0.00 | 64 | 1016.6 |
| 20260510111019 | 55 | 60 | 7.0 | 13.0 | 0.00 | 0.00 | 0.00 | 64 | 1016.6 |
| 20260510110035 | 55 | 58 | 8.7 | 16.5 | 0.00 | 0.00 | 0.00 | 63 | 1016.8 |
| 20260510105030 | 55 | 48 | 9.6 | 16.5 | 0.00 | 0.00 | 0.00 | 65 | 1016.8 |
| 20260510104025 | 54 | 60 | 7.8 | 15.6 | 0.00 | 0.00 | 0.00 | 67 | 1016.8 |
| 20260510103020 | 53 | 61 | 9.6 | 18.2 | 0.00 | 0.00 | 0.00 | 67 | 1016.9 |
| 20260510102034 | 53 | 48 | 10.4 | 16.5 | 0.00 | 0.00 | 0.00 | 68 | 1017.0 |
| 20260510101028 | 53 | 39 | 7.0 | 13.0 | 0.00 | 0.00 | 0.00 | 69 | 1017.1 |
| 20260510100023 | 53 | 49 | 8.7 | 16.5 | 0.00 | 0.00 | 0.00 | 68 | 1017.0 |
| 20260510095018 | 54 | 55 | 10.4 | 16.5 | 0.00 | 0.00 | 0.00 | 68 | 1016.9 |
| 20260510094032 | 53 | 44 | 13.0 | 22.6 | 0.00 | 0.00 | 0.00 | 69 | 1017.0 |
| 20260510093107 | 53 | 45 | 9.6 | 15.6 | 0.00 | 0.00 | 0.00 | 69 | 1017.0 |
| 20260510092022 | 52 | 32 | 9.6 | 14.8 | 0.00 | 0.00 | 0.00 | 70 | 1017.1 |
| 20260510091016 | 51 | 55 | 11.3 | 19.1 | 0.00 | 0.00 | 0.00 | 72 | 1017.1 |
| 20260510090031 | 50 | 40 | 12.2 | 18.2 | 0.00 | 0.00 | 0.00 | 73 | 1017.1 |
| 20260510085026 | 50 | 40 | 11.3 | 19.1 | 0.00 | 0.00 | 0.00 | 73 | 1017.2 |
| 20260510084021 | 50 | 31 | 8.7 | 14.8 | 0.00 | 0.00 | 0.00 | 75 | 1017.3 |
| 20260510083034 | 50 | 42 | 9.6 | 18.2 | 0.00 | 0.00 | 0.00 | 75 | 1017.2 |
| 20260510082030 | 50 | 32 | 7.8 | 13.9 | 0.00 | 0.00 | 0.00 | 76 | 1017.3 |
| 20260510080532 | 50 | 37 | 10.4 | 15.6 | 0.00 | 0.00 | 0.00 | 76 | 1017.2 |
| 20260510075528 | 50 | 52 | 8.7 | 18.2 | 0.00 | 0.00 | 0.00 | 77 | 1017.3 |
| 20260510074524 | 49 | 47 | 9.6 | 18.2 | 0.00 | 0.00 | 0.00 | 78 | 1017.4 |
| 20260510073520 | 49 | 42 | 8.7 | 15.6 | 0.00 | 0.00 | 0.00 | 79 | 1017.3 |
| 20260510072535 | 49 | 46 | 6.1 | 13.0 | 0.00 | 0.00 | 0.00 | 80 | 1017.2 |
| 20260510071611 | 49 | 31 | 8.7 | 15.6 | 0.00 | 0.00 | 0.00 | 80 | 1017.4 |
| 20260510070528 | 49 | 41 | 7.0 | 13.0 | 0.00 | 0.00 | 0.00 | 81 | 1017.4 |
| 20260510065523 | 49 | 42 | 7.0 | 12.2 | 0.00 | 0.00 | 0.00 | 82 | 1017.4 |
| 20260510064520 | 48 | 44 | 8.7 | 14.8 | 0.00 | 0.00 | 0.00 | 82 | 1017.3 |
| 20260510063535 | 48 | 42 | 8.7 | 13.9 | 0.00 | 0.00 | 0.00 | 83 | 1017.3 |
| 20260510062610 | 48 | 46 | 7.8 | 13.0 | 0.00 | 0.00 | 0.00 | 83 | 1017.3 |
| 20260510061526 | 48 | 41 | 7.8 | 13.9 | 0.00 | 0.00 | 0.00 | 84 | 1017.3 |
| 20260510060521 | 48 | 40 | 7.8 | 13.0 | 0.00 | 0.00 | 0.00 | 84 | 1017.2 |
| 20260510055557 | 47 | 32 | 6.1 | 12.2 | 0.00 | 0.00 | 0.00 | 84 | 1017.2 |
| 20260510054533 | 47 | 24 | 6.1 | 12.2 | 0.00 | 0.00 | 0.00 | 85 | 1017.2 |
| 20260510053529 | 47 | 31 | 7.0 | 12.2 | 0.00 | 0.00 | 0.00 | 85 | 1017.2 |
| 20260510052525 | 47 | 28 | 5.2 | 13.0 | 0.00 | 0.00 | 0.00 | 86 | 1017.2 |
| 20260510051521 | 47 | 26 | 6.1 | 9.6 | 0.00 | 0.00 | 0.00 | 86 | 1017.3 |
| 20260510050517 | 47 | 24 | 5.2 | 9.6 | 0.00 | 0.00 | 0.00 | 86 | 1017.2 |
| 20260510045532 | 47 | 16 | 6.1 | 9.6 | 0.00 | 0.00 | 0.00 | 86 | 1017.2 |
| 20260510044527 | 47 | 17 | 5.2 | 9.6 | 0.00 | 0.00 | 0.00 | 86 | 1017.0 |
| 20260510043523 | 47 | 25 | 5.2 | 11.3 | 0.00 | 0.00 | 0.00 | 86 | 1017.1 |
| 20260510042520 | 47 | 17 | 6.1 | 11.3 | 0.00 | 0.00 | 0.00 | 86 | 1017.2 |
| 20260510041536 | 47 | 41 | 5.2 | 9.6 | 0.00 | 0.00 | 0.00 | 86 | 1017.2 |
| 20260510040532 | 47 | 40 | 5.2 | 7.0 | 0.00 | 0.00 | 0.00 | 86 | 1017.4 |
| 20260510035527 | 47 | 45 | 4.3 | 8.7 | 0.00 | 0.00 | 0.00 | 86 | 1017.5 |
| 20260510034523 | 47 | 38 | 6.1 | 9.6 | 0.00 | 0.00 | 0.00 | 85 | 1017.5 |
| 20260510033559 | 47 | 35 | 6.1 | 9.6 | 0.00 | 0.00 | 0.00 | 85 | 1017.3 |
| 20260510032536 | 47 | 38 | 7.0 | 11.3 | 0.00 | 0.00 | 0.00 | 84 | 1017.5 |
| 20260510031531 | 48 | 23 | 7.0 | 12.2 | 0.00 | 0.00 | 0.00 | 84 | 1017.6 |
| 20260510030527 | 48 | 21 | 7.8 | 12.2 | 0.00 | 0.00 | 0.00 | 83 | 1017.5 |
| 20260510025523 | 48 | 32 | 7.0 | 12.2 | 0.00 | 0.00 | 0.00 | 83 | 1017.6 |
| 20260510024519 | 48 | 26 | 6.1 | 11.3 | 0.00 | 0.00 | 0.00 | 83 | 1017.5 |
| 20260510023536 | 48 | 24 | 5.2 | 9.6 | 0.00 | 0.00 | 0.00 | 82 | 1017.5 |
| 20260510022532 | 48 | 22 | 5.2 | 9.6 | 0.00 | 0.00 | 0.00 | 80 | 1017.6 |
| 20260510021527 | 49 | 12 | 4.3 | 7.0 | 0.00 | 0.00 | 0.00 | 77 | 1017.6 |
| 20260510020523 | 49 | 23 | 4.3 | 7.8 | 0.00 | 0.00 | 0.00 | 75 | 1017.5 |
| 20260510015559 | 49 | 14 | 4.3 | 9.6 | 0.00 | 0.00 | 0.00 | 73 | 1017.6 |
| 20260510014535 | 49 | 28 | 4.3 | 8.7 | 0.00 | 0.00 | 0.00 | 70 | 1017.5 |
| 20260510013530 | 50 | 31 | 6.1 | 9.6 | 0.00 | 0.00 | 0.00 | 68 | 1017.5 |
| 20260510012526 | 50 | 0 | 3.5 | 7.8 | 0.00 | 0.00 | 0.00 | 67 | 1017.4 |
| 20260510011521 | 51 | 14 | 5.2 | 11.3 | 0.00 | 0.00 | 0.00 | 66 | 1017.5 |
| 20260510010516 | 51 | 37 | 5.2 | 8.7 | 0.00 | 0.00 | 0.00 | 66 | 1017.5 |
| 20260510005533 | 51 | 28 | 5.2 | 11.3 | 0.00 | 0.00 | 0.00 | 64 | 1017.5 |
| 20260510004528 | 51 | 42 | 5.2 | 11.3 | 0.00 | 0.00 | 0.00 | 63 | 1017.4 |
| 20260510003521 | 51 | 34 | 6.1 | 9.6 | 0.00 | 0.00 | 0.00 | 63 | 1017.4 |
| 20260510002518 | 51 | 26 | 6.1 | 9.6 | 0.00 | 0.00 | 0.00 | 62 | 1017.6 |
| 20260510001534 | 51 | 17 | 2.6 | 6.1 | 0.00 | 0.00 | 0.00 | 62 | 1017.6 |
| 20260510000530 | 50 | 13 | 2.6 | 3.5 | 0.00 | 0.00 | 0.00 | 63 | 1017.5 |
| 20260509235526 | 51 | 38 | 2.6 | 5.2 | 0.00 | 0.00 | 0.00 | 63 | 1017.6 |
| 20260509234523 | 52 | 50 | 3.5 | 5.2 | 0.00 | 0.00 | 0.00 | 61 | 1017.7 |
| 20260509233518 | 52 | 60 | 4.3 | 7.0 | 0.00 | 0.00 | 0.00 | 60 | 1017.6 |
| 20260509232534 | 52 | 48 | 5.2 | 8.7 | 0.00 | 0.00 | 0.00 | 58 | 1017.4 |
| 20260509231529 | 53 | 49 | 6.1 | 9.6 | 0.00 | 0.00 | 0.00 | 57 | 1017.6 |
| 20260509230525 | 53 | 49 | 3.5 | 6.1 | 0.00 | 0.00 | 0.00 | 56 | 1017.4 |
| 20260509225521 | 53 | 61 | 3.5 | 7.0 | 0.00 | 0.00 | 0.00 | 55 | 1017.5 |
| 20260509224517 | 53 | 51 | 4.3 | 7.8 | 0.00 | 0.00 | 0.00 | 54 | 1017.5 |
| 20260509223532 | 53 | 55 | 5.2 | 9.6 | 0.00 | 0.00 | 0.00 | 53 | 1017.4 |
| 20260509222528 | 53 | 41 | 4.3 | 7.8 | 0.00 | 0.00 | 0.00 | 52 | 1017.5 |
| 20260509221524 | 53 | 51 | 3.5 | 6.1 | 0.00 | 0.00 | 0.00 | 51 | 1017.5 |
| 20260509220600 | 54 | 65 | 3.5 | 6.1 | 0.00 | 0.00 | 0.00 | 50 | 1017.5 |
| 20260509215616 | 54 | 58 | 4.3 | 7.8 | 0.00 | 0.00 | 0.00 | 49 | 1017.3 |
| 20260509214611 | 54 | 64 | 3.5 | 7.0 | 0.00 | 0.00 | 0.00 | 47 | 1017.6 |
| 20260509213607 | 55 | 62 | 4.3 | 7.8 | 0.00 | 0.00 | 0.00 | 47 | 1017.5 |
| 20260509212606 | 55 | 66 | 4.3 | 9.6 | 0.00 | 0.00 | 0.00 | 46 | 1017.4 |
| 20260509211519 | 54 | 56 | 3.5 | 7.8 | 0.00 | 0.00 | 0.00 | 49 | 1017.4 |
| 20260509210532 | 54 | 57 | 3.5 | 6.1 | 0.00 | 0.00 | 0.00 | 51 | 1017.3 |
| 20260509205528 | 55 | 62 | 3.5 | 6.1 | 0.00 | 0.00 | 0.00 | 50 | 1017.3 |
| 20260509204523 | 56 | 65 | 2.6 | 5.2 | 0.00 | 0.00 | 0.00 | 50 | 1017.0 |
| 20260509203519 | 57 | 58 | 4.3 | 8.7 | 0.00 | 0.00 | 0.00 | 47 | 1016.9 |
| 20260509202534 | 57 | 65 | 5.2 | 13.0 | 0.00 | 0.00 | 0.00 | 46 | 1016.9 |
| 20260509201529 | 58 | 67 | 3.5 | 7.8 | 0.00 | 0.00 | 0.00 | 47 | 1016.8 |
| 20260509200524 | 58 | 64 | 1.7 | 6.1 | 0.00 | 0.00 | 0.00 | 48 | 1016.9 |
| 20260509195519 | 58 | 63 | 3.5 | 6.1 | 0.00 | 0.00 | 0.00 | 48 | 1016.8 |
| 20260509194534 | 58 | 85 | 0.9 | 3.5 | 0.00 | 0.00 | 0.00 | 48 | 1016.7 |
| 20260509193529 | 59 | 79 | 0.9 | 3.5 | 0.00 | 0.00 | 0.00 | 47 | 1016.6 |
| 20260509192524 | 60 | 79 | 0.9 | 2.6 | 0.00 | 0.00 | 0.00 | 45 | 1016.7 |
| 20260509191520 | 60 | 85 | 1.7 | 5.2 | 0.00 | 0.00 | 0.00 | 43 | 1016.5 |
| 20260509190616 | 61 | 83 | 0.9 | 5.2 | 0.00 | 0.00 | 0.00 | 45 | 1016.5 |
| 20260509185530 | 61 | 59 | 2.6 | 5.2 | 0.00 | 0.00 | 0.00 | 46 | 1016.3 |
| 20260509184525 | 62 | 76 | 1.7 | 3.5 | 0.00 | 0.00 | 0.00 | 46 | 1016.3 |
| 20260509183520 | 62 | 93 | 0.9 | 2.6 | 0.00 | 0.00 | 0.00 | 45 | 1016.4 |
| 20260509182556 | 63 | 70 | 1.7 | 7.0 | 0.00 | 0.00 | 0.00 | 46 | 1016.2 |
| 20260509181531 | 63 | 94 | 1.7 | 5.2 | 0.00 | 0.00 | 0.00 | 46 | 1016.2 |
| 20260509180605 | 63 | 81 | 2.6 | 6.1 | 0.00 | 0.00 | 0.00 | 46 | 1016.1 |
| 20260509175521 | 64 | 67 | 2.6 | 7.8 | 0.00 | 0.00 | 0.00 | 45 | 1016.0 |
| 20260509174517 | 64 | 64 | 3.5 | 7.8 | 0.00 | 0.00 | 0.00 | 46 | 1015.9 |
| 20260509173530 | 64 | 76 | 2.6 | 7.8 | 0.00 | 0.00 | 0.00 | 45 | 1015.8 |
| 20260509172526 | 65 | 72 | 2.6 | 8.7 | 0.00 | 0.00 | 0.00 | 45 | 1015.9 |
| 20260509171522 | 65 | 72 | 2.6 | 7.8 | 0.00 | 0.00 | 0.00 | 45 | 1015.8 |
| 20260509170517 | 65 | 64 | 6.1 | 9.6 | 0.00 | 0.00 | 0.00 | 43 | 1016.0 |
| 20260509165533 | 66 | 58 | 4.3 | 8.7 | 0.00 | 0.00 | 0.00 | 44 | 1015.8 |
| 20260509164528 | 66 | 78 | 2.6 | 7.8 | 0.00 | 0.00 | 0.00 | 43 | 1015.9 |
| 20260509163604 | 67 | 87 | 1.7 | 5.2 | 0.00 | 0.00 | 0.00 | 43 | 1015.8 |